Regional Weather Roundup
Issued by NWS Grand Forks, ND

Home | Current Version | Previous Version | Graphics & Text | Print | Product List | Glossary Off
Versions: 1 2 3 4 5 6 7 8 9 10 11 12 13 14 15 16 17 18 19 20 21 22 23 24 25 26 27 28 29 30 31 32 33 34 35 36 37 38 39 40 41 42 43 44 45 46 47 48 49 50

000
ASUS43 KFGF 181610
RWRFGF
PRAIRIE TO PINES  WEATHER ROUNDUP
NATIONAL WEATHER SERVICE EASTERN NORTH DAKOTA/GRAND FORKS ND
1100 AM CDT FRI APR 18 2014

 **SATELLITE DATA USED TO AUGMENT SKY COVER AT AUTOMATED STATIONS**
 *****  WEATHER ACROSS EASTERN NORTH DAKOTA  *****

CITY           SKY/WX    TMP DP  RH WIND       PRES   REMARKS
GRAND FORKS    PTSUNNY   42  22  44 SE15      30.25F
GRAND FRKS AFB PTSUNNY   43  20  39 SE18      30.24F
GRAND FRKS NWS   N/A     43 N/A N/A E18         N/A
DEVILS LAKE    CLOUDY    39  21  48 SE25G31   30.13F
FARGO          CLOUDY    41  26  55 SE14      30.24F
WAHPETON ARPT  CLOUDY    41  25  52 SE20      30.25F
$$

 ***** WEATHER ACROSS CENTRAL AND WESTERN NORTH DAKOTA  *****

CITY           SKY/WX    TMP DP  RH WIND       PRES   REMARKS
BISMARCK       MOSUNNY   47  26  44 SE24G30   29.96F
MINOT          CLOUDY    39  22  50 E25G33    29.99F
JAMESTOWN      CLOUDY    41  23  48 SE25G37   30.09F
MINOT AFB      CLOUDY    38  24  56 SE29G36   29.99S
GARRISON         N/A     43  25  49 SE23G32   29.95F
WILLISTON      CLOUDY    43  26  51 SE20G26   29.83F
DICKINSON      SUNNY     46  29  51 SE23      29.80F
HETTINGER      SUNNY     45  30  55 SE22      29.83F
$$

 *****  OTHER AIRPORT OBSERVATIONS IN OUR AREA  *****

CITY           SKY/WX    TMP DP  RH WIND       PRES   REMARKS
WALHALLA         N/A     39  16  38 SE18      30.24F
GRAFTON AIRPOR PTSUNNY   39  23  52 SE15      30.26S
VALLEY CITY AR PTSUNNY   41  23  48 SE26G33   30.15F
CANDO          CLOUDY    39  19  45 SE28      30.14S
CAVALIER APRT  CLOUDY    39  21  48 SE10G20   30.25F
GWINNER        MOSUNNY   43  25  49 SE25G31   30.16F
SHEYENNE NWR     N/A     41  21  45 SE17      29.95
ROLLA          FAIR      37  19  48 SE24G33   30.12F
 ***** THE ABOVE OBSERVATIONS ARE NON NWS ARE NOT QUALITY
       CONTROLLED AND MAY MIS-REPORT RAIN FOR SNOW...
$$

  *****  WEATHER ACROSS NORTHERN MINNESOTA  *****

CITY           SKY/WX    TMP DP  RH WIND       PRES   REMARKS
FLAG ISLAND    SUNNY     36  18  48 SE6       30.34S
WARROAD        SUNNY     36  21  55 NE9       30.33S
ROSEAU         SUNNY     43  10  26 SE15      30.31S
HALLOCK        CLOUDY    43  18  36 SE17      30.28S
THF RVR FALLS  CLOUDY    39  21  48 SE13      30.29S
BAUDETTE       SUNNY     39  20  46 SE10      30.33F
WASKISH        SUNNY     45  19  36 E8        30.33S
CROOKSTON      PTSUNNY   43  21  42 SE14      30.27F
$$
  *****  WEATHER ACROSS CENTRAL AND WEST MINNESOTA  *****

CITY           SKY/WX    TMP DP  RH WIND       PRES   REMARKS
FOSSTON        MOSUNNY   41  25  52 E13       30.28F
BEMIDJI        CLOUDY    40  20  45 SE16      30.31R
PARK RAPIDS    CLOUDY    38  20  48 SE9       30.30R
ELBOW LAKE     CLOUDY    38  26  61 SE13G21   30.27S
WADENA         PTSUNNY   37  23  56 SE12      30.30S
DETROIT LAKES  MOSUNNY   41  21  45 SE15      30.27S
MOORHEAD       NOT AVBL
FERGUS FALLS   PTSUNNY   39  19  45 SE17      30.25S
MORRIS MN      MOSUNNY   37  30  75 SE20      30.27S
STAPLES        CLOUDY    37  21  52 SE7       30.31S
$$
  *****  WEATHER ELSEWHERE ACROSS MINNESOTA  *****

CITY           SKY/WX    TMP DP  RH WIND       PRES   REMARKS
DULUTH         MOSUNNY   36  18  48 SE9       30.37S
INTRNTL FALLS  SUNNY     38  14  37 SE10      30.36S
ELY            SUNNY     34  19  55 CALM      30.37F
CLOQUET        SUNNY     37  14  38 E7        30.38R
WHEATON        PTSUNNY   43  30  61 SE24      30.26F
BRAINERD       MOSUNNY   44  22  41 SE7       30.34S
HIBBING        SUNNY     39  15  37 E5        30.37S
ALEXANDRIA     CLOUDY    37  26  64 SE14G21   30.30S
SAINT CLOUD    CLOUDY    38  25  59 SE8       30.35S
MINNEAPOLIS    MOSUNNY   41  29  62 SE10      30.37R
$$

  *****  WEATHER ACROSS SOUTH DAKOTA  *****

CITY           SKY/WX    TMP DP  RH WIND       PRES   REMARKS
SIOUX FALLS    MOSUNNY   50  33  52 SE16G24   30.17F
BROOKINGS      NOT AVBL
WATERTOWN      CLOUDY    41  31  67 SE21G29   30.15F
HURON          SUNNY     53  35  50 SE25G33   30.04F
SISSETON         N/A     38  31  76 S21       30.20F
ABERDEEN       MOSUNNY   49  31  49 SE24G33   30.05F
MITCHELL       SUNNY     55  37  50 S25G35    30.07F
PIERRE         SUNNY     54  36  50 SE20G26   29.88F
MOBRIDGE       SUNNY     49  31  49 SE22G31   29.90F
RAPID CITY     PTSUNNY   51  40  65 SE8       29.78F
$$

  *****  SOME WEATHER IN NEARBY STATES *****

CITY           SKY/WX    TMP DP  RH WIND       PRES   REMARKS
GLASGOW MT     CLOUDY    42  31  64 E21       29.64S
GREAT FALLS MT CLOUDY    48  36  63 SW13      29.68R
CHEYENNE WY    CLOUDY    56  30  37 S17       30.00R
SCOTTSBLUFF NE PTSUNNY   61  40  45 SE7       29.91F
OMAHA NE       SUNNY     53  33  46 S15       30.28S HAZE
DES MOINES IA  MOSUNNY   49  35  58 SE8       30.34F
DAVENPORT IA   SUNNY     49  34  56 VRB6      30.37F
CHICAGO IL     PTSUNNY   50  34  54 NE13      30.35R
EAU CLAIRE WI  PTSUNNY   41  26  55 E7        30.39S
LA CROSSE WI   MOSUNNY   45  25  45 VRB5      30.38F
$$

  *****  SOME NATIONAL WEATHER *****

CITY           SKY/WX    TMP DP  RH WIND       PRES   REMARKS
LA GUARDIA NY  CLOUDY    40  27  59 NE9       30.50F
RALEIGH NC     CLOUDY    52  37  56 NE9       30.43S
ATLANTA GA     LGT RAIN  52  48  86 E12       30.30S
NEW ORLEANS LA PTSUNNY   68  61  78 N12       30.11S
OKLAHOMA CITY  SUNNY     61  41  47 VRB7      30.27S
ALBUQUERQUE NM PTSUNNY   59  28  30 N5        30.18F
SALT LAKE CITY CLOUDY    65  25  22 VRB7      29.89R
LOS ANGELES CA PTSUNNY   63  52  67 CALM      29.92R
BOISE ID       CLOUDY    51  39  63 NW10      30.01R
SEATTLE WA     PTSUNNY   47  39  74 S10       30.10R
$$

*** WEATHER ACROSS MANITOBA...SASKATCHEWAN AND ONTARIO ***
                ***ONTARIO***

CITY           SKY/WX    TMP DP  RH WIND       PRES   REMARKS
GERALDTON      MOSUNNY   32  19  59 NE12      30.35R WCI  23
THUNDER BAY    MOSUNNY   34  25  69 VRB2      30.40S
SIOUX LOOKOUT  MOSUNNY   36  12  38 VRB2      30.38S
TORONTO        CLOUDY    48  34  57 SE3       30.27F
BIG TROUT LK   SUNNY     30  10  43 SW6       30.38R WCI  24
PICKLE LAKE    MOSUNNY   36   3  25 NW5       30.37S
DRYDEN         SUNNY     36   7  30 CALM      30.37S
KENORA         CLOUDY    37   9  30 S8        30.35S
$$
                *** MANITOBA***

CITY           SKY/WX    TMP DP  RH WIND       PRES   REMARKS
BRANDON        CLOUDY    37  18  44 SE17G28   30.16F
DAUPHIN        SUNNY     36  19  51 SE16G22   30.17F
ISLAND LAKE    SUNNY     32  10  40 SE6       30.39S
PILOT MOUND      N/A     39  14  35 SE24G30     N/A
THE PAS        NOT AVBL
THOMPSON       MOSUNNY   36   7  30 S3        30.34S
WINNIPEG       PTSUNNY   41  12  30 SE18G26   30.30S
LYNN LAKE      SUNNY     32   3  29 SE9       30.26F WCI  24
CHURCHILL      MOSUNNY   14  10  85 E5        30.45S WCI   6
GILLAM         MOSUNNY   27  18  69 NE7       30.40R WCI  19
$$
                ***SASKATCHEWAN***

CITY           SKY/WX    TMP DP  RH WIND       PRES   REMARKS
ESTEVAN        CLOUDY    36  25  64 SE17G25   29.90F
KINDERSLEY     CLOUDY    39  37  93 SE17      29.61F
LLOYDMINSTER   CLOUDY    30  28  93 E15       29.68F WCI  19
PRINCE ALBERT  LGT SNOW  28  25  86 E18G24    29.92F VSB 1   WCI  16
REGINA         FLURRIES  34  25  69 SE30G41   29.85F WCI  20
YORKTON        PTSUNNY   34  19  55 SE21G30   30.02F WCI  22
N. BATTLEFORD  FLURRIES  32  30  93 SE26G35   29.73F WCI  18
LA RONGE       CLOUDY    30  12  47 E12G18    30.04F WCI  21
SASKATOON      FLURRIES  32  30  93 SE28G38   29.78F WCI  18
SWIFT CURRENT  LGT RAIN  39  37  93 SE14      29.64S FOG
$$
NOTE: THESE ARE AUTOMATED STATIONS WITH LIMITED QUALITY CONTROL
      "FAIR" INDICATES FEW OR NO CLOUDS BELOW 12,000 FEET WITH NO
      SIGNIFICANT WEATHER AND/OR OBSTRUCTIONS TO VISIBILITY.
      SKY/WX - SKY CONDITION AND SIGNIFICANT WEATHER.
      TMP - AIR TEMPERATURE.    DP   - DEWPOINT TEMPERATURE.
      RH  - RELATIVE HUMIDITY.  PRES - PRESSURE.
      HX  - HEAT INDEX.         WCI  - WIND CHILL INDEX.
$



USA.gov is the U.S. government's official web portal to all federal, state and local government web resources and services.